Wind_Speed
18 18 18 19 19 20 21 21 21 21 20 21 21 21 21 21 22 23 23 24 24 24 24 25 25 25 25 26 26 27 26 26 26 26 26 27 27 27 28 29 30 30 30 30 31 32 32 33 35 36 36 35 35 33 33 33 33 32 32 30 29 28 27
18 18 18 19 19 20 20 21 21 21 21 21 21 21 21 22 22 22 23 23 24 25 25 25 26 26 26 26 27 27 28 28 27 27 27 28 29 29 28 28 28 28 29 30 31 32 33 33 35 37 36 36 36 35 34 34 34 34 33 32 31 29 28
18 18 19 19 20 20 20 21 21 22 22 22 22 22 22 22 22 22 23 24 24 25 26 26 27 27 27 28 28 28 28 29 29 28 28 28 30 30 29 28 28 28 29 30 31 32 33 35 37 38 37 37 36 35 36 35 35 35 34 32 31 30 29
18 19 19 20 20 20 20 21 22 22 23 23 23 23 23 23 23 23 23 24 25 26 26 27 27 28 28 28 29 29 29 28 28 28 28 28 29 30 29 29 29 30 31 32 32 33 34 36 37 37 37 37 36 35 36 36 37 37 35 32 32 32 31
19 19 20 20 20 21 21 22 22 23 24 24 24 24 23 23 23 23 24 25 26 26 27 27 27 28 28 29 29 29 29 28 28 28 28 28 29 30 30 29 29 30 31 32 33 34 34 34 34 35 35 35 35 35 36 37 38 39 36 33 34 34 32
20 21 21 21 21 22 22 22 23 24 24 25 25 24 24 23 23 24 25 26 26 26 26 27 27 28 28 29 29 29 29 28 28 27 27 28 29 30 30 29 30 30 31 32 33 34 33 32 32 33 34 33 34 34 36 38 38 40 38 34 34 35 34
22 22 22 22 22 23 23 23 24 24 25 25 25 25 25 24 24 25 25 26 26 26 26 26 27 27 28 28 28 29 29 29 28 27 27 28 29 30 30 30 30 30 30 31 32 32 32 31 29 30 33 34 33 33 35 37 39 40 39 36 36 37 36
22 23 23 23 23 23 24 24 25 25 26 26 26 26 25 25 25 25 26 26 26 26 26 26 26 27 27 28 28 28 28 28 28 28 28 28 29 30 29 29 29 29 29 30 31 30 31 31 28 27 31 33 33 33 34 36 38 39 39 37 39 39 37
23 23 23 24 24 24 25 25 25 26 26 27 27 26 26 26 26 26 26 26 26 26 26 26 26 26 27 28 28 28 28 28 28 28 28 28 29 29 28 28 28 27 27 28 29 28 29 31 28 25 27 31 33 33 34 35 37 39 40 40 42 41 39
23 23 23 24 24 25 25 25 26 26 27 27 27 27 27 27 26 27 27 27 27 26 26 26 26 26 27 27 28 28 28 28 28 28 28 28 29 29 27 27 28 27 27 27 27 27 28 29 28 26 25 28 32 33 33 36 38 39 41 44 45 44 42
23 23 24 24 25 25 25 26 26 27 27 27 27 27 27 27 27 27 28 28 28 27 27 27 27 27 27 27 28 28 28 28 27 27 27 28 28 29 27 26 27 28 28 27 26 26 27 28 27 26 25 26 30 31 32 36 39 40 41 45 47 45 44
24 25 25 26 26 26 26 26 26 26 27 27 27 27 28 28 28 28 28 29 29 29 29 29 29 28 28 28 28 29 29 29 28 27 27 27 27 27 27 26 27 28 29 29 27 26 26 27 26 26 26 25 28 31 33 34 38 40 41 45 46 45 44
26 27 27 28 28 28 28 27 27 27 27 27 27 27 28 28 28 29 29 30 30 30 30 30 30 29 29 29 29 29 29 30 29 28 28 28 28 27 26 25 26 27 29 30 29 28 27 27 27 27 26 25 25 29 33 34 35 37 39 42 44 42 42
28 29 29 30 30 30 29 29 28 28 28 28 28 28 29 29 29 30 30 31 31 31 32 32 31 31 30 30 30 30 30 31 31 30 29 29 29 28 27 25 25 26 27 28 30 30 29 28 27 27 26 25 25 27 31 33 33 35 36 38 41 41 41
30 31 31 31 31 31 31 31 31 30 30 30 30 30 30 30 30 31 31 32 32 33 33 33 33 33 32 32 31 31 31 32 32 32 32 31 30 30 28 27 26 25 26 26 28 30 31 30 28 27 27 26 26 26 29 31 32 34 37 39 40 41 42
32 32 32 32 32 32 33 33 33 32 32 32 32 32 31 32 32 32 33 33 33 34 35 35 35 35 35 34 33 32 32 32 33 33 33 33 32 32 31 29 28 26 26 25 26 29 30 30 29 28 27 27 26 26 28 31 31 31 35 38 39 39 41
34 34 34 33 33 34 34 34 34 34 34 34 34 34 33 33 33 34 34 34 35 35 35 36 36 37 37 36 35 34 33 33 33 33 34 34 34 33 32 32 30 29 27 26 25 27 29 30 29 29 28 27 27 27 27 29 32 31 30 33 37 38 38
35 35 35 35 35 35 35 36 36 36 36 36 35 35 35 35 35 35 35 35 35 35 36 36 37 38 38 38 38 37 36 35 34 34 34 35 34 34 33 33 33 32 30 28 27 27 28 29 28 29 29 28 28 27 26 27 30 32 31 31 35 38 37
36 36 36 36 36 37 37 37 37 36 36 36 36 36 36 36 36 37 37 37 37 37 37 37 37 38 39 40 40 40 39 38 37 36 36 35 35 34 34 33 33 33 32 31 29 28 28 28 28 28 28 29 29 28 27 28 28 30 31 31 32 35 38
37 36 36 37 37 37 37 37 37 37 36 36 36 36 36 37 37 38 38 38 39 39 39 39 39 39 40 41 41 41 42 41 40 39 38 37 36 35 34 34 34 34 33 33 32 30 29 29 28 27 27 28 30 29 28 28 27 28 29 30 30 32 36
37 36 37 37 37 37 38 38 37 37 36 36 36 37 37 37 38 38 39 39 40 40 41 41 41 41 41 42 43 43 43 43 43 42 41 40 39 37 36 35 34 34 34 34 34 33 31 30 29 28 27 27 28 29 30 29 28 30 31 31 32 34 35
37 37 37 37 38 38 38 37 36 36 36 37 37 37 38 38 39 39 40 40 41 41 42 42 42 42 42 42 43 44 44 45 45 44 43 43 42 40 39 37 36 36 36 35 35 34 34 33 31 29 28 28 28 28 30 30 29 32 33 33 32 33 36
36 37 37 37 38 38 37 36 36 36 36 37 38 38 38 39 39 40 40 41 41 42 42 42 42 42 42 43 43 43 44 45 45 45 45 44 44 43 42 40 39 38 37 36 36 36 35 35 34 32 30 30 29 28 29 30 30 31 34 35 33 31 33
37 37 37 38 38 37 36 36 36 36 37 37 38 38 39 39 39 39 40 40 41 41 41 42 42 42 42 43 43 43 44 44 45 46 46 46 45 45 44 43 42 41 40 39 38 37 37 37 36 35 33 32 31 30 29 30 31 32 33 34 34 32 31
37 38 38 38 38 37 36 36 36 37 37 38 38 38 38 38 38 38 39 39 40 40 41 41 42 42 43 43 43 44 44 44 45 46 46 47 47 46 46 46 45 44 43 42 40 39 38 38 38 37 36 34 33 32 31 30 30 32 33 33 34 33 32
38 39 39 38 37 36 36 36 37 37 38 38 38 38 37 38 38 38 39 39 40 40 41 42 43 44 45 45 46 46 47 47 47 47 48 48 48 48 48 48 47 47 46 45 43 41 39 39 39 39 38 37 35 34 33 32 31 31 32 33 33 33 33
39 39 39 37 36 35 35 36 37 37 37 37 37 37 37 38 38 38 39 40 41 43 44 45 46 47 48 48 49 49 50 50 50 51 51 51 51 51 50 50 49 48 47 47 46 44 41 40 39 40 40 39 37 36 35 34 32 32 32 32 33 34 34
39 39 38 36 35 34 35 36 36 36 36 36 36 37 37 38 39 40 42 43 45 46 46 46 47 47 47 48 48 48 49 50 51 51 52 53 53 54 54 54 52 51 50 49 48 46 43 41 40 40 41 40 39 38 37 35 34 34 33 32 33 34 35
39 38 37 36 34 34 35 36 36 36 36 36 36 37 38 39 41 42 43 44 44 44 44 44 44 45 46 46 47 48 49 49 50 50 51 51 52 53 54 55 55 55 53 52 51 49 46 43 41 41 41 41 41 40 39 38 37 35 34 34 34 35 36
37 36 36 35 34 35 36 36 35 35 35 35 36 38 39 40 41 42 41 41 41 42 43 43 44 45 46 47 48 49 50 50 51 51 52 52 52 52 53 54 55 56 56 55 54 52 50 47 43 42 42 42 42 41 40 40 39 37 36 36 35 35 36
36 35 35 34 35 36 36 35 34 35 35 36 37 38 39 39 39 39 39 40 41 42 43 44 45 46 47 48 49 49 50 51 51 52 52 53 53 53 53 53 54 54 55 56 56 54 52 50 47 44 43 42 43 43 42 41 40 39 37 37 37 36 36
34 34 34 35 35 35 35 34 34 34 35 36 37 37 37 37 38 38 39 40 41 42 43 44 45 45 46 47 47 48 49 50 51 52 52 52 53 53 53 53 54 54 54 55 56 55 53 52 51 48 44 43 44 44 44 43 42 41 39 38 38 37 37
34 34 34 34 34 33 33 33 34 34 34 35 35 35 36 36 37 38 39 41 42 42 43 44 44 45 45 46 46 47 48 48 49 50 51 51 52 52 52 52 53 53 54 54 55 55 54 54 54 51 46 44 45 46 46 45 44 43 42 41 41 39 38
33 33 32 32 32 32 32 32 33 33 33 33 33 34 35 36 37 39 40 41 42 42 43 44 44 44 45 46 46 46 46 47 47 48 49 49 49 50 50 50 51 52 52 52 53 54 54 54 54 52 48 46 46 47 48 47 45 43 41 42 42 42 40
31 30 30 30 31 31 31 31 31 31 31 32 33 34 35 37 38 39 40 41 42 42 43 43 44 44 45 46 46 46 46 47 47 47 47 47 47 46 46 47 47 48 49 49 50 52 52 52 53 52 50 49 48 48 49 50 48 46 44 43 42 41 39
29 29 29 29 30 29 29 29 29 30 31 32 33 34 36 37 39 40 40 41 41 41 42 42 43 43 44 45 46 46 47 47 48 48 48 46 44 43 42 42 42 42 43 43 44 47 48 49 50 48 47 48 48 47 49 52 51 50 48 45 42 40 40
27 28 28 28 28 28 27 28 29 30 31 32 33 35 36 37 38 39 39 40 40 40 41 41 42 42 43 44 45 45 46 47 48 49 50 48 44 40 38 37 36 35 36 36 37 40 43 46 47 44 40 42 43 42 43 49 52 52 51 49 45 41 40
Wind_Direction
283 283 284 284 285 287 289 290 291 292 293 295 298 301 302 302 302 301 301 302 305 307 308 308 308 310 311 313 316 317 317 313 309 306 304 302 301 298 292 285 280 276 273 270 268 267 267 265 260 255 253 252 249 246 249 251 250 250 250 248 246 245 244
283 283 284 285 286 287 289 290 292 293 294 295 298 300 301 301 301 300 301 303 303 304 305 306 307 308 309 311 313 315 316 314 310 306 303 301 300 297 294 288 282 276 272 270 269 267 266 267 264 259 255 253 250 246 247 251 251 251 252 248 245 244 244
282 283 284 285 286 287 289 290 292 293 294 295 296 299 301 302 303 303 303 302 301 302 304 306 306 307 308 309 311 313 314 313 310 307 303 300 297 295 294 290 284 277 272 270 269 266 267 267 265 261 257 255 253 247 245 249 252 253 253 249 246 245 244
283 284 283 284 286 287 289 290 291 292 293 295 297 299 301 304 305 305 303 301 301 302 304 305 306 307 308 309 310 311 312 313 311 308 305 301 297 295 293 290 286 281 275 271 268 267 271 273 267 260 258 256 254 248 243 246 250 252 254 250 246 244 243
285 285 285 286 288 289 290 291 291 292 293 296 298 300 302 304 306 304 302 300 301 302 304 306 307 307 307 308 308 310 311 313 312 308 305 302 299 296 292 289 286 284 280 275 270 269 275 279 270 260 256 255 254 250 244 243 247 251 253 249 244 244 244
286 287 288 289 290 290 291 291 292 293 294 297 298 300 301 303 303 302 301 301 302 302 304 306 307 307 307 307 308 309 311 313 313 310 306 303 301 298 295 291 286 284 284 279 275 272 275 280 274 261 255 253 251 250 246 244 246 250 251 248 245 245 245
287 288 290 291 291 292 292 292 293 294 296 297 298 298 299 301 301 301 301 301 301 301 302 304 305 305 305 306 307 309 311 313 314 312 308 304 300 297 295 293 288 286 285 283 281 276 275 279 276 264 257 252 248 249 249 246 246 248 251 249 245 244 243
287 289 290 291 292 293 293 294 295 296 296 296 296 297 298 299 300 300 300 300 299 300 300 302 303 303 304 304 306 308 310 313 314 314 313 309 303 299 295 292 289 287 286 285 284 279 275 276 277 270 263 256 249 247 249 249 248 248 250 250 246 244 243
287 289 292 293 295 296 297 297 296 295 295 294 295 296 297 298 298 298 299 298 298 298 299 300 301 302 303 303 304 306 308 311 314 315 315 314 311 306 300 294 291 289 288 286 284 281 276 276 278 277 272 263 256 251 249 249 249 247 247 248 247 244 242
289 291 293 295 297 298 298 297 296 294 294 294 295 296 297 297 297 297 298 298 298 298 298 298 299 300 300 301 301 303 305 308 311 314 315 316 317 315 308 299 294 292 291 288 286 282 277 275 278 281 277 266 259 256 252 250 251 250 247 244 244 243 240
288 291 293 294 296 297 297 296 295 294 294 295 296 297 298 298 298 298 298 298 298 298 297 298 298 299 299 299 299 300 302 305 308 311 313 315 316 318 316 307 298 295 293 291 288 283 279 277 277 281 281 270 259 255 254 253 253 255 252 245 243 242 240
287 289 290 292 293 294 295 296 296 296 297 298 299 299 300 300 299 299 299 298 298 298 297 297 298 299 299 298 299 299 301 302 304 306 309 311 313 315 317 313 305 298 295 294 292 287 282 279 277 278 280 276 264 254 253 255 255 256 255 248 243 242 240
285 287 289 290 292 293 295 296 298 299 300 301 301 301 301 301 300 300 299 299 299 298 298 297 297 298 298 298 298 298 299 300 301 302 304 305 308 310 313 314 310 304 298 296 295 292 286 281 278 277 278 278 273 261 253 254 257 260 259 248 241 241 242
284 286 288 290 292 294 296 297 299 301 302 303 303 302 302 301 301 300 299 299 299 299 298 298 297 297 297 297 297 297 297 298 299 299 300 300 302 304 307 310 310 308 303 299 296 294 290 284 279 277 277 276 277 271 259 253 255 260 259 251 241 239 242
285 287 289 292 295 297 299 299 300 301 302 303 303 303 303 302 301 301 300 300 299 299 299 298 298 298 297 297 297 297 296 296 297 297 298 298 298 299 301 304 305 306 306 303 298 294 291 287 282 277 275 273 273 272 264 256 257 257 253 249 245 240 241
286 288 292 296 300 300 300 300 300 300 301 302 302 302 302 302 302 302 301 300 299 299 298 298 298 298 297 297 296 296 295 294 294 294 295 296 296 296 297 299 300 301 302 303 301 297 293 289 285 279 275 272 270 271 265 257 258 258 251 245 245 244 243
287 290 294 298 300 300 300 300 300 300 300 301 301 301 302 303 302 302 301 300 299 299 298 298 297 297 297 296 296 296 295 294 293 292 292 293 293 294 293 294 295 296 298 299 299 299 296 292 288 281 276 271 268 269 269 263 257 257 256 249 246 247 246
288 292 295 297 299 300 300 300 300 300 300 300 301 302 303 303 303 302 301 301 300 299 298 297 297 296 296 296 296 296 295 294 293 292 291 291 291 291 291 291 291 292 293 295 295 296 296 295 292 285 278 272 268 265 266 266 260 255 257 256 249 247 247
289 292 294 296 298 299 299 300 300 301 301 301 302 303 304 304 304 303 303 303 302 301 300 298 297 296 296 295 295 295 295 295 294 292 291 290 289 289 289 289 289 289 289 291 292 293 294 295 294 290 282 274 270 266 262 263 262 258 258 259 253 246 245
289 291 293 295 297 299 300 300 301 301 302 303 304 304 304 304 304 304 304 304 303 303 302 300 299 297 296 296 295 295 295 294 294 293 292 290 288 287 287 287 287 287 287 287 288 289 290 291 292 292 289 280 272 268 264 260 258 257 258 261 260 254 249
288 290 293 295 297 299 300 301 301 302 303 304 304 305 305 304 304 304 303 303 302 302 301 300 299 297 296 296 295 294 294 293 293 292 292 291 289 287 285 285 284 285 285 285 285 286 286 287 288 288 289 286 279 271 266 261 255 252 252 253 254 255 254
288 290 293 296 298 300 300 301 302 303 304 305 305 305 305 305 304 304 303 303 302 301 300 299 298 296 295 294 293 293 293 292 291 291 290 290 289 287 286 284 282 282 282 283 284 284 283 282 283 284 284 285 284 278 270 265 259 254 253 254 251 248 249
289 292 296 298 299 300 302 303 304 305 306 306 306 306 306 306 305 304 304 303 302 301 300 299 298 297 295 294 292 291 291 290 289 289 288 288 287 287 285 284 282 281 280 280 281 281 281 280 279 280 280 280 281 281 276 269 264 258 257 258 258 253 248
292 295 298 300 302 303 305 306 307 308 308 308 308 308 307 307 306 305 304 303 302 301 300 299 299 298 297 295 294 292 291 289 289 287 287 286 285 284 284 283 282 281 279 278 278 278 278 278 277 277 277 277 277 278 278 274 268 263 259 258 259 259 254
294 297 300 302 304 306 307 308 309 310 310 310 309 309 308 308 307 306 305 304 303 302 301 301 300 299 298 296 295 294 292 290 289 288 286 285 284 283 282 282 281 280 279 277 276 276 275 276 276 275 274 274 275 275 275 275 272 267 263 259 258 257 256
296 299 302 304 306 307 308 310 310 310 310 310 309 309 308 308 307 306 306 305 304 304 303 302 301 300 299 298 296 295 293 291 290 288 286 285 284 282 281 281 280 279 278 277 275 273 272 272 273 273 272 271 272 272 272 272 272 270 266 262 259 257 255
298 300 303 304 306 307 309 310 310 310 309 309 309 309 309 308 308 308 307 307 306 305 304 303 302 301 299 298 297 295 294 292 290 288 286 284 283 281 280 279 279 278 278 276 275 272 270 269 268 269 270 269 269 269 270 269 269 270 269 266 262 259 256
298 300 302 303 306 307 308 309 309 309 309 309 310 310 310 310 310 310 309 308 307 305 304 304 303 302 301 300 299 297 296 294 291 289 287 284 282 280 279 277 276 276 275 275 274 272 270 267 264 264 265 267 267 267 266 267 267 267 267 267 264 261 258
298 299 301 304 305 306 308 309 309 309 310 311 311 311 311 311 311 310 309 308 308 308 308 308 308 308 307 306 304 303 301 298 296 293 289 286 283 280 277 276 274 272 271 271 271 271 269 266 262 260 260 262 264 265 264 264 264 264 264 264 263 261 260
297 299 302 304 304 306 308 309 309 310 311 312 312 312 312 311 311 311 311 311 312 313 313 313 312 311 310 309 308 306 305 302 300 297 294 291 287 283 279 275 273 270 269 267 267 267 267 266 262 258 256 257 260 262 263 262 261 261 262 262 262 262 261
298 301 303 304 304 306 308 309 310 311 311 311 312 312 312 312 313 313 314 315 315 315 315 314 314 313 312 311 310 309 307 305 303 300 298 294 291 287 282 277 273 270 267 265 264 263 263 263 261 257 253 253 255 258 260 260 260 259 259 260 260 260 260
300 302 303 304 305 306 307 308 309 309 310 311 312 313 314 315 315 316 316 316 316 316 315 315 315 315 314 314 313 312 311 310 308 305 302 299 295 290 286 281 276 271 267 264 261 259 258 257 257 255 252 249 250 252 255 257 258 256 254 255 256 257 257
300 301 302 303 305 306 306 306 307 308 311 313 314 315 315 316 316 316 317 317 317 317 317 317 317 316 316 316 316 315 314 313 312 310 307 303 299 294 289 284 279 273 268 263 260 257 255 253 252 252 250 247 246 248 250 253 256 255 253 252 253 255 256
300 301 302 303 304 304 304 305 308 311 314 315 315 315 316 316 317 318 318 318 318 318 319 319 319 319 319 319 318 318 317 317 316 315 313 308 303 298 292 286 281 275 270 264 259 255 252 250 249 248 246 244 242 243 247 250 253 253 252 252 253 255 256
299 300 301 302 301 302 304 308 312 314 315 315 315 316 317 318 319 319 320 320 320 320 320 321 321 322 322 322 322 322 322 323 323 322 321 316 310 303 297 290 284 278 272 266 260 255 251 248 246 244 243 242 240 240 243 247 251 252 253 253 253 254 256
298 299 299 299 301 304 308 312 314 314 314 315 316 318 319 321 321 322 322 321 321 322 323 324 324 325 325 326 327 328 328 329 330 330 329 326 319 312 305 298 291 283 277 270 262 255 250 245 242 240 240 240 240 240 242 245 248 252 253 252 252 252 252
297 297 298 300 304 308 311 313 313 314 315 317 319 320 322 323 323 323 323 323 323 324 325 326 327 328 330 331 331 332 332 334 336 337 337 335 330 323 316 309 302 293 285 275 266 257 249 243 238 235 236 238 239 240 244 246 246 250 253 251 248 248 247
Height
5815 5815 5815 5815 5815 5814 5814 5814 5813 5813 5813 5812 5811 5810 5809 5808 5806 5805 5804 5802 5801 5800 5799 5798 5796 5794 5793 5791 5789 5788 5787 5785 5784 5782 5781 5779 5777 5776 5775 5774 5773 5773 5773 5774 5774 5774 5774 5775 5775 5775 5776 5776 5777 5778 5779 5779 5780 5780 5781 5782 5782 5783 5784
5814 5813 5813 5813 5812 5812 5812 5811 5811 5810 5810 5809 5809 5808 5807 5805 5804 5803 5801 5800 5799 5797 5796 5795 5793 5791 5790 5788 5787 5785 5784 5782 5781 5779 5778 5775 5773 5772 5771 5770 5770 5769 5770 5770 5770 5770 5770 5771 5771 5771 5772 5772 5772 5774 5775 5775 5776 5776 5777 5778 5779 5780 5781
5812 5812 5811 5811 5810 5810 5810 5809 5808 5808 5807 5807 5806 5805 5804 5803 5801 5800 5799 5797 5796 5795 5793 5792 5790 5788 5787 5785 5783 5782 5781 5779 5778 5776 5774 5772 5770 5768 5767 5766 5766 5766 5766 5766 5766 5766 5766 5767 5767 5768 5768 5767 5768 5770 5771 5771 5772 5772 5774 5776 5777 5778 5778
5810 5810 5809 5809 5808 5808 5807 5806 5806 5805 5805 5804 5803 5802 5801 5800 5798 5797 5796 5795 5793 5792 5791 5789 5787 5785 5783 5782 5780 5779 5778 5777 5775 5773 5771 5769 5767 5766 5764 5763 5763 5762 5762 5763 5762 5762 5762 5762 5762 5763 5763 5763 5764 5765 5767 5767 5767 5768 5771 5773 5774 5774 5775
5808 5808 5807 5807 5806 5805 5805 5804 5803 5803 5803 5802 5801 5799 5798 5797 5796 5794 5793 5792 5791 5789 5788 5786 5784 5782 5780 5779 5778 5777 5776 5774 5773 5770 5768 5766 5764 5762 5761 5761 5760 5759 5758 5758 5758 5758 5758 5757 5757 5758 5759 5759 5760 5761 5763 5763 5763 5764 5767 5770 5770 5770 5771
5806 5805 5805 5804 5804 5803 5802 5802 5801 5800 5800 5799 5798 5797 5795 5794 5793 5792 5791 5789 5788 5787 5785 5783 5782 5780 5778 5776 5775 5774 5773 5771 5769 5767 5765 5763 5761 5759 5758 5757 5757 5756 5754 5754 5753 5754 5753 5753 5752 5753 5754 5755 5756 5757 5758 5759 5760 5760 5762 5765 5767 5767 5768
5803 5803 5803 5802 5802 5801 5800 5799 5799 5798 5797 5796 5795 5794 5793 5792 5791 5789 5788 5786 5785 5784 5783 5781 5779 5778 5776 5774 5773 5771 5770 5768 5766 5764 5762 5760 5758 5756 5754 5754 5753 5752 5751 5750 5749 5749 5749 5749 5749 5749 5749 5750 5751 5753 5753 5755 5756 5756 5758 5761 5762 5762 5764
5801 5801 5800 5800 5799 5799 5798 5797 5796 5795 5794 5793 5792 5791 5790 5789 5788 5786 5785 5784 5783 5781 5780 5779 5777 5775 5773 5771 5770 5768 5767 5765 5763 5761 5759 5757 5755 5753 5751 5750 5749 5748 5747 5746 5746 5745 5745 5745 5745 5745 5745 5746 5747 5748 5749 5750 5751 5753 5755 5757 5757 5757 5760
5798 5798 5798 5797 5797 5796 5795 5794 5793 5792 5791 5790 5789 5788 5787 5786 5785 5784 5783 5781 5780 5779 5777 5776 5774 5772 5770 5769 5767 5765 5764 5762 5760 5758 5756 5754 5752 5750 5748 5747 5746 5745 5744 5743 5742 5741 5741 5741 5741 5740 5741 5741 5742 5743 5745 5746 5747 5749 5751 5751 5751 5752 5755
5796 5795 5795 5794 5794 5793 5792 5791 5791 5790 5789 5788 5787 5785 5784 5783 5782 5781 5780 5778 5777 5776 5774 5773 5771 5769 5768 5766 5764 5763 5761 5759 5757 5755 5753 5751 5748 5746 5745 5743 5742 5741 5740 5739 5739 5738 5738 5737 5737 5736 5737 5737 5738 5739 5740 5741 5743 5744 5745 5745 5745 5746 5748
5793 5793 5792 5792 5791 5791 5790 5789 5788 5787 5786 5785 5784 5782 5781 5780 5779 5778 5777 5775 5774 5772 5771 5769 5768 5766 5765 5763 5761 5760 5758 5756 5754 5752 5750 5748 5746 5744 5742 5740 5738 5737 5736 5736 5735 5734 5734 5733 5733 5733 5733 5733 5734 5735 5736 5737 5738 5739 5740 5740 5740 5741 5743
5790 5790 5790 5789 5789 5788 5787 5786 5786 5784 5783 5782 5780 5779 5778 5777 5776 5774 5773 5772 5771 5769 5768 5766 5765 5763 5762 5760 5758 5756 5755 5753 5751 5749 5747 5745 5743 5741 5739 5737 5735 5734 5733 5732 5732 5731 5730 5729 5729 5729 5729 5729 5729 5730 5731 5732 5733 5734 5735 5735 5735 5736 5738
5788 5788 5787 5787 5786 5785 5784 5783 5783 5781 5780 5778 5777 5776 5774 5773 5772 5771 5769 5768 5767 5766 5764 5763 5761 5759 5758 5756 5755 5753 5751 5749 5748 5746 5744 5742 5740 5739 5737 5735 5733 5731 5729 5728 5727 5726 5726 5725 5724 5724 5725 5725 5725 5726 5726 5727 5728 5729 5730 5730 5731 5732 5733
5785 5785 5784 5784 5783 5782 5781 5780 5779 5777 5776 5775 5773 5772 5771 5769 5768 5767 5766 5764 5763 5762 5761 5759 5757 5756 5754 5752 5751 5749 5748 5746 5744 5743 5741 5739 5737 5736 5734 5733 5730 5728 5726 5725 5724 5722 5721 5721 5720 5720 5720 5720 5721 5721 5722 5723 5723 5724 5725 5725 5726 5728 5728
5782 5782 5781 5780 5779 5778 5777 5776 5775 5773 5772 5771 5769 5768 5767 5765 5764 5763 5762 5760 5759 5758 5757 5755 5754 5752 5750 5749 5747 5745 5744 5742 5741 5739 5738 5736 5734 5733 5731 5730 5728 5726 5724 5722 5721 5719 5718 5717 5717 5716 5716 5716 5717 5717 5717 5718 5719 5719 5720 5720 5721 5723 5724
5779 5778 5777 5776 5775 5774 5773 5772 5771 5769 5768 5767 5766 5764 5763 5761 5760 5759 5757 5756 5755 5754 5752 5751 5749 5748 5746 5745 5743 5742 5740 5739 5737 5735 5734 5732 5731 5729 5728 5726 5725 5723 5721 5720 5718 5716 5715 5713 5713 5712 5712 5712 5712 5712 5713 5713 5714 5714 5714 5715 5717 5718 5719
5775 5774 5774 5773 5772 5771 5769 5768 5767 5765 5764 5763 5761 5760 5759 5757 5756 5755 5753 5752 5751 5750 5748 5746 5745 5743 5742 5741 5739 5738 5736 5735 5733 5732 5730 5728 5727 5725 5724 5723 5721 5719 5718 5716 5715 5713 5711 5710 5709 5709 5708 5708 5708 5708 5708 5708 5709 5709 5710 5711 5712 5713 5714
5772 5771 5770 5769 5768 5767 5765 5764 5763 5761 5760 5758 5757 5756 5754 5753 5752 5750 5749 5748 5746 5745 5744 5742 5741 5739 5737 5736 5735 5734 5732 5731 5729 5727 5726 5724 5723 5722 5720 5719 5717 5715 5714 5713 5712 5710 5708 5707 5706 5705 5704 5704 5704 5704 5704 5705 5705 5705 5706 5707 5708 5709 5710
5768 5767 5766 5765 5764 5763 5761 5760 5758 5757 5756 5754 5753 5751 5750 5748 5747 5745 5744 5743 5741 5740 5739 5738 5736 5734 5733 5731 5730 5728 5727 5726 5725 5723 5721 5720 5718 5717 5716 5714 5713 5711 5710 5709 5708 5706 5705 5704 5702 5702 5701 5700 5700 5700 5700 5700 5701 5701 5702 5702 5703 5704 5706
5765 5764 5763 5762 5760 5759 5757 5756 5755 5753 5752 5750 5748 5747 5745 5744 5742 5741 5739 5738 5736 5735 5733 5732 5731 5729 5728 5726 5725 5723 5722 5721 5719 5718 5716 5715 5714 5712 5711 5710 5708 5707 5706 5705 5704 5703 5701 5700 5699 5698 5697 5696 5696 5696 5696 5696 5696 5697 5698 5698 5699 5700 5701
5762 5761 5759 5758 5757 5755 5754 5752 5751 5749 5748 5746 5744 5743 5741 5739 5737 5736 5734 5733 5731 5730 5728 5727 5726 5724 5722 5720 5719 5717 5716 5715 5713 5712 5711 5710 5708 5707 5706 5705 5704 5702 5701 5700 5699 5698 5697 5696 5695 5694 5694 5692 5692 5692 5692 5692 5692 5692 5693 5693 5695 5696 5697
5758 5757 5756 5754 5753 5752 5750 5748 5747 5745 5743 5742 5740 5738 5736 5734 5733 5731 5729 5727 5726 5724 5723 5721 5720 5719 5717 5715 5714 5712 5710 5708 5707 5706 5705 5704 5702 5701 5700 5699 5698 5697 5696 5695 5694 5693 5693 5692 5691 5690 5689 5688 5688 5687 5687 5687 5687 5687 5687 5687 5689 5690 5691
5754 5753 5752 5750 5749 5748 5746 5744 5743 5741 5739 5737 5735 5733 5731 5730 5728 5726 5724 5722 5721 5719 5717 5716 5714 5713 5711 5710 5708 5706 5704 5703 5701 5700 5699 5698 5696 5695 5694 5693 5692 5691 5690 5690 5689 5688 5688 5687 5686 5686 5685 5684 5683 5683 5682 5682 5682 5682 5682 5682 5683 5684 5686
5750 5749 5748 5746 5745 5743 5741 5740 5738 5736 5734 5732 5730 5729 5727 5725 5723 5721 5719 5717 5716 5714 5712 5710 5708 5706 5705 5703 5701 5700 5698 5697 5695 5693 5692 5691 5690 5689 5687 5686 5685 5684 5684 5684 5684 5683 5682 5682 5681 5680 5680 5679 5679 5678 5678 5677 5677 5678 5678 5678 5678 5679 5680
5746 5745 5744 5742 5740 5739 5737 5735 5733 5731 5730 5728 5726 5724 5722 5720 5718 5716 5715 5713 5711 5709 5707 5705 5703 5701 5699 5697 5695 5693 5692 5690 5688 5687 5685 5684 5683 5682 5681 5679 5678 5677 5677 5677 5677 5677 5677 5676 5675 5675 5675 5674 5674 5673 5673 5673 5672 5673 5673 5673 5673 5674 5675
5742 5741 5739 5738 5736 5734 5732 5731 5729 5727 5725 5723 5722 5720 5718 5716 5714 5712 5710 5708 5706 5704 5702 5700 5698 5695 5693 5691 5689 5687 5685 5683 5682 5680 5678 5677 5675 5674 5673 5672 5671 5670 5669 5669 5669 5670 5671 5670 5670 5669 5669 5668 5668 5668 5668 5668 5668 5667 5668 5668 5669 5670 5671
5738 5737 5735 5734 5732 5730 5728 5727 5725 5723 5721 5719 5717 5715 5714 5712 5709 5707 5705 5703 5701 5699 5697 5694 5692 5689 5687 5684 5682 5680 5677 5675 5674 5672 5671 5669 5668 5666 5666 5665 5663 5662 5661 5660 5660 5662 5663 5664 5664 5663 5662 5662 5663 5663 5663 5663 5663 5662 5662 5663 5664 5665 5666
5735 5733 5732 5730 5728 5726 5725 5723 5721 5719 5717 5715 5713 5711 5709 5707 5705 5703 5701 5698 5696 5694 5691 5688 5685 5682 5680 5677 5674 5672 5669 5667 5665 5663 5662 5660 5659 5658 5657 5656 5655 5654 5653 5652 5651 5652 5654 5656 5657 5656 5656 5656 5656 5657 5657 5658 5658 5657 5657 5658 5659 5660 5660
5731 5729 5727 5726 5724 5722 5721 5719 5718 5716 5713 5711 5709 5707 5705 5703 5700 5698 5696 5693 5691 5688 5685 5682 5679 5676 5673 5670 5667 5664 5662 5659 5657 5655 5653 5651 5650 5648 5647 5646 5645 5645 5645 5644 5643 5644 5645 5647 5648 5649 5649 5650 5650 5650 5651 5652 5652 5652 5652 5653 5654 5654 5654
5727 5725 5723 5722 5720 5719 5718 5716 5714 5711 5709 5707 5705 5702 5700 5698 5696 5693 5691 5688 5685 5682 5679 5676 5673 5670 5667 5664 5661 5658 5655 5652 5649 5646 5644 5642 5640 5638 5637 5636 5635 5634 5634 5634 5634 5635 5636 5637 5639 5641 5642 5643 5644 5644 5645 5645 5645 5646 5647 5647 5648 5648 5648
5722 5721 5719 5718 5717 5716 5714 5712 5709 5707 5705 5703 5700 5698 5696 5694 5691 5689 5686 5683 5681 5678 5675 5672 5668 5665 5662 5659 5655 5652 5648 5645 5642 5638 5635 5632 5630 5628 5626 5625 5624 5624 5623 5623 5624 5626 5627 5628 5629 5632 5634 5636 5637 5637 5638 5638 5638 5639 5641 5641 5641 5642 5642
5718 5717 5716 5715 5713 5712 5710 5708 5705 5703 5701 5699 5696 5694 5692 5689 5687 5684 5682 5679 5676 5673 5670 5667 5664 5660 5657 5654 5650 5646 5642 5638 5634 5630 5626 5623 5619 5617 5615 5613 5612 5612 5612 5613 5613 5615 5617 5618 5619 5622 5625 5628 5629 5630 5630 5631 5631 5632 5634 5634 5634 5635 5636
5715 5714 5713 5711 5710 5708 5706 5704 5702 5699 5697 5695 5693 5690 5688 5686 5683 5680 5677 5675 5672 5668 5665 5662 5659 5656 5652 5649 5645 5641 5637 5632 5627 5623 5618 5614 5610 5607 5604 5601 5600 5599 5600 5601 5602 5604 5607 5608 5609 5612 5616 5619 5621 5622 5623 5624 5624 5625 5627 5627 5627 5629 5630
5711 5710 5709 5708 5706 5704 5702 5700 5698 5696 5693 5691 5689 5687 5684 5682 5679 5676 5673 5670 5667 5664 5661 5658 5655 5651 5647 5644 5640 5635 5631 5627 5622 5616 5611 5606 5601 5597 5593 5590 5588 5587 5587 5589 5590 5593 5596 5598 5600 5603 5607 5610 5612 5614 5615 5617 5618 5619 5620 5621 5622 5623 5624
5708 5707 5706 5704 5703 5701 5699 5696 5694 5692 5690 5688 5686 5683 5681 5678 5675 5672 5669 5666 5663 5660 5657 5654 5650 5646 5642 5638 5634 5629 5625 5620 5615 5610 5604 5598 5592 5587 5583 5580 5578 5576 5575 5576 5578 5580 5584 5588 5590 5594 5598 5601 5603 5606 5608 5609 5610 5612 5613 5615 5616 5617 5618
5704 5703 5702 5701 5699 5697 5695 5693 5691 5689 5687 5685 5682 5679 5676 5673 5670 5667 5665 5662 5659 5656 5653 5650 5646 5642 5637 5633 5628 5624 5619 5614 5609 5604 5598 5592 5585 5580 5575 5571 5568 5566 5565 5566 5567 5569 5573 5577 5581 5586 5590 5593 5596 5599 5601 5602 5603 5604 5606 5608 5610 5611 5612
5701 5700 5699 5697 5695 5693 5692 5690 5688 5686 5684 5681 5678 5676 5673 5670 5667 5664 5662 5659 5656 5653 5649 5646 5642 5638 5633 5629 5624 5620 5615 5610 5604 5598 5592 5585 5579 5574 5569 5564 5561 5559 5557 5557 5558 5560 5563 5567 5571 5577 5582 5586 5589 5593 5594 5595 5596 5598 5599 5601 5603 5604 5605